Flag for U.S.A. Weather past 2 weeks in Freehold, New Jersey, U.S.A.

Now
34 °F

Sunny.


Feels Like: 26 °F
Forecast: 31 / 42 °F
Wind: 10 mph from West

Location: Belmar-Farmdale

Current Time: Dec 18, 2014 at 8:06:54 AM

Latest Report: Dec 18, 2014 at 7:35 AM


Visibility: 10 mi

Pressure: 29.99 "Hg

Humidity: 51%

Dew point: 18 °F

Location of FreeholdLocation

Historic Weather in Freehold — Graph

°F

Freehold temperature yesterday

Maximum temperature yesterday: 54 °F (at 11:55 AM)
Minimum temperature yesterday: 37 °F (at 11:35 PM)
Average temperature yesterday: 47 °F

Past Weeks' High & Low Weather Summary

 TemperatureHumidityPressure
High54 °F (Dec 17, 11:55 AM)88% (Dec 6, 5:35 PM)30.63 "Hg (Dec 6, 5:35 PM)
Low28 °F (Dec 8, 2:55 AM)34% (Dec 7, 11:35 PM)29.61 "Hg (Dec 10, 1:35 PM)
Average39 °F66%30.07 "Hg
* Reported Dec 3 6:15 AM — Dec 18 6:55 AM, Freehold, Weather by CustomWeather, © 2014

Note: Actual official high and low records may vary slightly from our data, if they occured in-between our weather recording intervals... More about our weather records

Advertising

Freehold weather history for previous 24 hours

 ConditionsComfort  
Time TempWeatherWind HumidityBarometerVisibility
6:55 AM
Dec 18
34 °FClear.10 mph56%29.98 "Hg10 mi
6:35 AM36 °FClear.12 mph52%29.98 "Hg10 mi
6:15 AM36 °FClear.10 mph52%29.97 "Hg10 mi
5:55 AM36 °FClear.10 mph52%29.97 "Hg10 mi
5:35 AM36 °FClear.10 mph52%29.96 "Hg10 mi
5:15 AM36 °FClear.10 mph52%29.95 "Hg10 mi
4:55 AM36 °FPassing clouds.9 mph56%29.94 "Hg10 mi
4:35 AM37 °FOvercast.10 mph52%29.94 "Hg10 mi
4:15 AM37 °FOvercast.9 mph52%29.93 "Hg10 mi
3:55 AM37 °FOvercast.13 mph52%29.93 "Hg10 mi
3:35 AM37 °FOvercast.13 mph52%29.93 "Hg10 mi
3:15 AM37 °FOvercast.12 mph52%29.94 "Hg10 mi
2:55 AM37 °FOvercast.13 mph52%29.93 "Hg10 mi
2:35 AM37 °FOvercast.13 mph52%29.93 "Hg10 mi
2:15 AM37 °FOvercast.14 mph52%29.92 "Hg10 mi
1:55 AM36 °FOvercast.16 mph56%29.91 "Hg10 mi
1:35 AM36 °FPassing clouds.15 mph56%29.92 "Hg10 mi
1:15 AM36 °FPassing clouds.13 mph56%29.92 "Hg10 mi
12:55 AM37 °FClear.13 mph52%29.92 "Hg10 mi
12:35 AM37 °FClear.13 mph52%29.91 "Hg10 mi
12:15 AM37 °FClear.12 mph52%29.91 "Hg10 mi
11:55 PM
Dec 17
37 °FClear.13 mph56%29.91 "Hg10 mi
11:35 PM37 °FClear.13 mph60%29.91 "Hg10 mi
10:35 PM39 °FClear.8 mph56%29.93 "Hg10 mi
10:15 PM39 °FClear.13 mph56%29.93 "Hg10 mi
9:55 PM39 °FClear.10 mph56%29.92 "Hg10 mi
9:35 PM41 °FClear.9 mph57%29.92 "Hg10 mi
9:15 PM41 °FClear.9 mph57%29.92 "Hg10 mi
8:55 PM43 °FClear.8 mph53%29.92 "Hg10 mi
8:35 PM43 °FClear.10 mph53%29.92 "Hg10 mi
8:15 PM43 °FClear.12 mph53%29.91 "Hg10 mi
7:55 PM43 °FClear.8 mph53%29.92 "Hg10 mi
7:35 PM45 °FClear.10 mph49%29.91 "Hg10 mi
6:55 PM45 °FOvercast.15 mph53%29.91 "Hg10 mi
6:35 PM46 °FOvercast.15 mph50%29.90 "Hg10 mi
6:15 PM46 °FOvercast.15 mph50%29.90 "Hg10 mi
5:35 PM48 °FOvercast.14 mph50%29.88 "Hg10 mi
5:15 PM48 °FOvercast.15 mph50%29.88 "Hg10 mi
4:55 PM48 °FOvercast.13 mph50%29.87 "Hg10 mi
4:35 PM48 °FOvercast.21 mph54%29.87 "Hg10 mi
4:15 PM48 °FOvercast.14 mph54%29.86 "Hg10 mi
3:55 PM50 °FOvercast.17 mph50%29.86 "Hg10 mi
3:35 PM50 °FOvercast.17 mph54%29.85 "Hg10 mi
3:15 PM52 °FOvercast.15 mph50%29.84 "Hg10 mi
2:55 PM52 °FOvercast.10 mph54%29.84 "Hg10 mi
2:35 PM52 °FOvercast.16 mph54%29.83 "Hg10 mi
2:15 PM52 °FOvercast.10 mph54%29.83 "Hg10 mi
1:55 PM52 °FOvercast.16 mph54%29.83 "Hg10 mi
1:35 PM52 °FOvercast.13 mph58%29.83 "Hg10 mi
1:15 PM52 °FOvercast.16 mph58%29.83 "Hg10 mi
12:55 PM54 °FOvercast.13 mph54%29.83 "Hg10 mi
12:35 PM52 °FMostly cloudy.15 mph58%29.83 "Hg10 mi
12:15 PM52 °FPartly sunny.16 mph58%29.83 "Hg10 mi
11:55 AM54 °FSunny.20 mph58%29.83 "Hg10 mi
11:35 AM52 °FPassing clouds.15 mph62%29.85 "Hg10 mi
11:15 AM52 °FSunny.15 mph62%29.86 "Hg10 mi
10:55 AM50 °FPassing clouds.17 mph67%29.87 "Hg10 mi
10:35 AM48 °FPartly sunny.10 mph71%29.88 "Hg10 mi
10:15 AM48 °FScattered clouds.12 mph66%29.88 "Hg10 mi
9:55 AM46 °FPartly sunny.10 mph71%29.88 "Hg10 mi
9:35 AM46 °FOvercast.12 mph71%29.88 "Hg10 mi
9:15 AM46 °FOvercast.13 mph76%29.87 "Hg10 mi
8:55 AM46 °FOvercast.13 mph76%29.86 "Hg10 mi
8:35 AM45 °FScattered clouds.9 mph76%29.86 "Hg8 mi
8:15 AM43 °FSunny.8 mph81%29.86 "Hg5 mi
Weather by CustomWeather, © 2014

See weather overviewHow to use our weather pages